Temperature
2 2 2 3 4 4 5 5 5 5 5 5 6 6 6 7 7 7 7 7 7 7 7 7 7 8 8 8 8 8 8 8 9 9 8 8 9 9 9 9 9 9 9
1 1 2 2 3 3 4 4 4 5 5 5 5 5 5 6 6 6 6 6 6 6 7 7 7 7 7 7 7 8 8 8 8 8 8 8 8 8 8 8 9 9 9
0 0 1 1 2 2 3 3 3 4 4 4 4 4 4 5 5 5 5 5 6 6 6 6 6 6 6 7 7 7 7 7 8 8 8 8 8 8 8 8 8 8 8
-0 -0 -0 0 1 1 2 2 2 3 3 3 3 3 3 4 4 4 4 5 5 5 5 5 5 6 6 6 6 6 6 7 7 7 7 8 8 7 7 7 8 8 8
-1 -1 -1 -0 -0 0 1 1 2 2 2 2 3 3 3 3 3 3 4 4 4 4 4 5 5 5 5 5 5 6 6 6 6 6 7 7 7 7 7 7 7 7 7
-1 -1 -1 -1 -0 0 0 1 1 1 2 2 2 2 2 2 2 2 3 3 3 4 4 4 4 4 4 5 5 5 5 5 6 6 6 6 6 6 6 6 6 6 7
-2 -2 -2 -2 -1 -1 -0 -0 0 1 1 1 1 1 1 1 1 2 2 2 3 3 3 3 3 4 4 4 4 4 5 5 5 5 6 6 6 6 6 6 6 6 6
-2 -2 -2 -2 -2 -2 -1 -1 -1 -0 -0 0 1 1 1 1 1 1 1 1 2 2 2 3 3 3 3 3 4 4 4 4 5 5 5 5 5 6 6 6 6 5 5
-2 -3 -3 -3 -3 -2 -2 -2 -1 -1 -1 -1 -0 -0 -0 0 0 0 1 1 1 1 2 2 2 2 3 3 3 3 4 4 4 4 5 5 5 5 5 5 5 5 5
-3 -3 -3 -3 -3 -3 -3 -2 -2 -2 -2 -1 -1 -1 -1 -1 -0 -0 0 0 1 1 1 1 2 2 2 2 2 3 3 3 3 4 4 4 4 4 5 5 5 5 5
-3 -4 -4 -3 -3 -3 -3 -3 -2 -2 -2 -2 -2 -2 -1 -1 -1 -1 -0 -0 0 0 1 1 1 1 1 2 2 2 2 2 3 3 3 4 4 4 4 4 4 4 5
-4 -4 -4 -4 -4 -3 -3 -3 -3 -3 -3 -2 -2 -2 -2 -2 -2 -1 -1 -1 -0 0 0 0 0 1 1 1 1 1 2 2 2 2 2 3 3 3 3 4 4 4 4
-4 -4 -4 -4 -4 -4 -4 -3 -3 -3 -3 -3 -3 -3 -3 -2 -2 -2 -1 -1 -1 -0 -0 -0 -0 0 0 0 1 1 1 1 2 2 2 2 2 3 3 3 3 3 3
-4 -4 -4 -4 -4 -4 -4 -4 -4 -4 -4 -3 -3 -3 -3 -3 -3 -3 -2 -2 -1 -1 -1 -1 -0 -0 -0 0 0 0 1 1 1 1 2 2 2 2 2 2 3 3 3
-4 -5 -5 -5 -5 -5 -5 -4 -4 -4 -4 -4 -4 -4 -3 -3 -3 -3 -3 -2 -2 -2 -1 -1 -1 -1 -1 -0 -0 0 0 0 1 1 1 1 1 1 2 2 2 2 2
-5 -5 -5 -5 -5 -5 -5 -5 -5 -5 -5 -4 -4 -4 -4 -4 -4 -4 -3 -3 -2 -2 -2 -2 -1 -1 -1 -1 -1 -0 -0 -0 0 0 0 1 1 1 1 1 1 2 2
-6 -6 -6 -6 -6 -6 -6 -5 -5 -5 -5 -5 -5 -5 -5 -5 -4 -4 -4 -4 -3 -3 -3 -2 -2 -2 -1 -1 -1 -1 -1 -0 -0 -0 -0 0 0 1 1 1 1 1 1
-6 -6 -6 -6 -6 -6 -6 -6 -6 -5 -5 -5 -5 -5 -5 -5 -5 -5 -4 -4 -4 -4 -3 -3 -2 -2 -2 -2 -2 -1 -1 -1 -1 -1 -1 -0 -0 -0 0 0 0 0 1
-7 -7 -7 -7 -6 -7 -7 -6 -6 -6 -6 -6 -6 -6 -6 -5 -5 -5 -5 -5 -5 -4 -4 -4 -3 -3 -2 -2 -2 -2 -2 -2 -2 -1 -1 -1 -1 -1 -0 -0 -0 -0 0
-7 -7 -7 -7 -7 -7 -7 -7 -7 -7 -6 -6 -6 -6 -6 -6 -6 -6 -5 -5 -5 -5 -5 -4 -4 -3 -3 -3 -3 -3 -3 -3 -2 -2 -2 -2 -1 -1 -1 -1 -1 -1 -0
-8 -8 -7 -7 -7 -8 -7 -7 -7 -7 -7 -7 -7 -7 -6 -6 -6 -6 -6 -6 -6 -5 -5 -5 -4 -4 -4 -4 -3 -3 -3 -3 -3 -3 -3 -2 -2 -2 -1 -1 -1 -1 -1
-8 -8 -8 -8 -8 -8 -8 -8 -8 -8 -7 -7 -7 -7 -7 -7 -7 -6 -6 -6 -6 -6 -6 -6 -5 -5 -5 -5 -4 -4 -4 -4 -4 -4 -3 -3 -2 -2 -2 -2 -2 -2 -2
-8 -8 -8 -8 -8 -8 -8 -8 -8 -8 -8 -8 -8 -8 -7 -7 -7 -7 -7 -7 -7 -7 -7 -6 -6 -6 -6 -5 -5 -5 -5 -4 -4 -4 -4 -3 -3 -3 -3 -3 -2 -2 -2
-9 -9 -9 -9 -9 -9 -9 -9 -9 -9 -9 -8 -8 -8 -8 -8 -8 -7 -7 -7 -8 -7 -7 -7 -7 -6 -6 -6 -6 -5 -5 -5 -5 -5 -4 -4 -4 -4 -4 -3 -3 -3 -3
-9 -9 -9 -9 -9 -9 -9 -9 -9 -9 -9 -9 -9 -9 -9 -9 -8 -8 -8 -8 -8 -8 -8 -7 -7 -7 -7 -6 -6 -6 -6 -5 -5 -5 -4 -4 -4 -4 -4 -4 -4 -4 -4
-10 -10 -10 -10 -10 -10 -10 -9 -9 -10 -10 -9 -9 -9 -9 -9 -9 -9 -8 -8 -8 -8 -8 -8 -8 -7 -7 -7 -6 -6 -6 -6 -5 -5 -5 -5 -5 -5 -5 -5 -5 -5 -5
Wind_Speed
7 8 8 8 8 9 9 8 8 8 7 5 4 4 3 3 3 3 4 4 4 4 3 2 3 3 3 3 3 3 4 3 3 3 3 2 2 3 2 3 2 2 2
8 9 9 9 9 9 9 8 8 7 6 5 5 4 4 3 3 3 4 4 5 5 4 3 3 3 3 4 4 3 3 3 4 4 3 3 4 3 3 3 3 3 2
7 8 9 9 9 9 10 8 8 7 7 7 5 5 3 3 3 4 3 4 5 5 4 4 4 3 3 4 4 5 5 4 4 5 4 4 4 3 4 4 4 3 3
7 7 8 9 9 9 9 9 8 7 7 6 5 6 4 4 5 4 4 5 5 5 5 5 4 4 3 4 5 5 5 5 5 4 4 4 2 3 3 4 4 4 4
7 7 8 8 9 9 9 9 9 8 8 7 6 6 6 5 5 5 5 5 4 5 5 5 4 4 4 5 5 5 5 5 5 5 4 4 4 5 5 4 5 4 4
7 7 7 8 8 9 9 9 9 8 8 8 7 7 7 7 7 6 6 5 4 4 5 5 5 5 4 5 5 6 6 6 6 5 5 5 5 6 6 6 5 5 4
6 7 8 8 9 10 10 9 10 9 8 8 8 8 8 7 7 7 6 6 5 5 6 5 6 5 5 5 5 5 6 6 7 6 6 6 6 6 6 6 5 4 3
7 7 8 8 8 9 10 10 10 9 9 9 9 8 8 6 6 7 6 6 6 6 7 7 6 7 6 6 5 5 6 5 6 7 7 6 5 6 6 6 5 4 3
7 8 8 8 8 8 9 9 9 9 9 9 9 8 8 8 8 8 7 6 6 6 7 7 7 7 7 6 6 5 6 6 6 6 7 6 6 5 6 5 6 6 6
8 8 7 8 8 8 8 9 9 9 9 9 8 7 8 8 8 7 7 7 7 7 8 7 7 7 7 7 6 6 6 7 6 5 7 7 6 6 5 6 6 6 6
7 7 7 7 8 8 8 9 9 9 9 9 9 9 8 8 8 8 8 8 8 8 8 7 7 7 7 7 7 7 7 8 7 7 7 7 7 6 5 5 6 6 6
7 7 7 7 8 9 9 9 9 9 9 9 9 9 9 8 8 9 9 8 8 8 8 7 7 7 7 7 8 8 8 8 8 8 8 8 6 7 6 5 6 6 6
8 7 7 7 8 9 9 9 9 9 10 9 9 9 9 9 9 9 9 9 8 8 7 7 7 7 7 7 8 8 8 9 9 8 8 8 8 8 6 6 6 5 6
8 8 8 8 8 9 9 10 10 10 9 9 9 9 10 10 9 9 9 9 8 8 8 7 7 7 6 7 7 7 7 7 8 8 8 8 9 8 8 7 6 5 6
8 8 9 9 9 9 9 9 10 10 9 9 9 9 10 10 9 9 9 9 8 8 8 7 7 6 5 5 6 6 7 7 7 7 7 8 8 9 8 6 6 6 5
9 10 10 10 9 9 10 10 10 10 10 9 9 9 9 9 9 9 9 9 8 8 7 7 6 5 4 5 6 5 6 6 6 7 7 7 7 8 9 8 8 8 8
10 11 10 10 11 10 10 10 10 10 9 9 9 9 9 9 9 9 9 8 8 8 7 7 6 5 5 4 5 5 5 5 5 6 6 5 5 6 6 5 6 7 8
11 11 11 11 10 9 9 10 10 9 9 9 9 9 9 10 9 9 9 9 8 7 6 6 6 5 4 4 4 4 4 3 4 4 5 5 5 5 5 5 5 5 5
10 10 10 10 10 9 9 9 9 9 9 9 9 9 9 10 9 9 9 8 8 7 6 6 5 4 4 3 3 3 3 3 3 3 4 5 5 5 5 5 5 5 4
9 10 10 10 9 9 9 9 9 9 9 9 9 9 9 9 9 9 9 8 7 7 6 6 5 4 4 3 3 3 2 2 3 3 3 4 5 5 6 6 6 6 5
10 10 9 9 9 9 9 9 9 10 10 9 9 9 9 9 9 9 8 7 7 7 6 5 5 4 4 4 3 3 2 2 2 3 2 2 3 4 5 5 5 6 4
10 10 9 9 9 9 8 9 10 10 10 9 9 9 9 8 7 8 7 7 6 6 6 5 5 4 4 4 4 4 4 4 3 3 2 2 2 3 4 4 4 4 3
9 9 9 10 9 9 8 10 10 10 9 9 9 8 8 7 7 7 7 6 5 4 5 5 5 4 4 4 5 5 5 5 3 2 2 2 1 1 0 1 2 2 2
9 9 10 10 10 10 9 9 10 9 8 9 9 8 7 7 7 6 5 5 5 5 5 5 5 5 4 4 4 4 3 4 3 2 1 2 2 2 2 1 1 1 1
8 8 9 9 11 10 10 10 9 9 8 8 8 7 6 6 6 6 5 6 5 5 5 5 4 4 4 5 6 4 3 3 2 1 1 1 1 1 1 1 1 1 1
8 9 9 10 10 10 10 9 9 8 8 7 7 6 6 5 5 5 6 7 7 8 8 8 7 6 7 8 7 6 5 5 3 2 1 1 1 1 1 1 1 1 1
Wind_Direction
5 6 4 6 7 9 7 7 6 5 4 357 348 340 334 330 330 333 330 327 317 308 304 304 291 274 251 249 242 241 219 212 197 202 209 212 211 219 231 225 211 196 193
5 6 5 7 7 5 2 0 0 359 359 352 341 326 312 308 317 328 323 321 316 308 299 290 280 277 262 250 240 232 228 218 208 205 202 211 212 214 223 223 220 219 204
360 1 1 2 4 3 358 352 350 350 352 350 346 342 332 327 325 320 309 312 307 302 292 281 275 267 256 248 240 232 232 226 220 222 217 211 216 199 202 216 217 218 221
358 358 357 356 357 356 354 351 348 348 350 349 344 339 325 315 310 307 301 304 301 298 292 282 275 265 255 251 247 239 236 231 226 230 236 240 218 205 199 203 210 215 226
354 354 352 350 349 351 352 350 348 351 350 347 341 329 321 311 306 303 300 300 299 297 295 286 276 266 259 256 256 255 243 232 232 227 229 226 228 226 219 215 204 209 219
350 350 349 349 349 351 352 351 348 349 349 345 339 329 321 317 311 306 298 295 292 292 294 292 279 267 260 253 251 251 250 243 237 233 226 220 216 214 215 222 213 216 216
349 350 348 347 347 348 349 349 347 345 345 342 337 328 320 313 305 301 295 292 289 286 287 288 281 268 261 256 249 247 248 248 241 235 233 229 228 220 218 218 219 225 227
344 343 342 341 341 343 344 347 344 342 340 338 332 327 325 314 305 300 297 289 285 283 282 278 276 269 258 254 248 243 244 243 244 240 237 233 229 224 213 215 212 216 224
333 334 336 339 338 339 341 342 339 338 337 332 329 324 324 319 310 302 297 291 288 291 286 275 272 268 257 249 245 243 242 239 238 238 238 236 226 221 218 213 211 215 218
328 329 332 336 337 336 335 336 337 336 333 332 327 321 319 316 312 305 298 296 294 294 289 281 273 266 256 247 241 243 239 237 236 234 233 237 232 221 217 214 219 224 223
323 325 328 331 333 335 334 334 334 335 333 330 326 320 319 317 313 310 303 298 295 290 287 279 272 264 254 246 240 240 239 235 235 233 232 234 234 224 220 218 217 221 220
321 321 324 327 332 334 334 332 331 331 329 326 322 321 319 317 315 312 307 302 296 289 287 279 268 262 253 247 241 240 239 233 233 232 230 233 232 227 220 218 217 217 215
324 321 323 325 328 328 329 330 328 328 327 325 323 322 322 320 316 312 308 306 301 294 290 283 269 263 253 247 243 239 238 236 234 232 229 229 226 227 219 217 217 216 213
321 321 322 321 323 324 325 325 325 325 325 324 321 320 322 319 315 313 310 308 305 295 286 283 272 265 258 250 243 237 237 239 239 238 234 232 225 227 221 217 216 213 213
322 322 323 323 320 321 322 321 322 323 323 321 320 320 321 320 317 316 316 314 310 305 294 288 278 269 261 255 251 239 237 237 239 239 238 236 231 231 229 218 212 208 212
321 320 324 325 321 320 319 319 320 322 320 319 318 320 321 321 320 319 318 316 314 310 305 296 284 272 265 269 267 256 240 238 238 239 240 236 229 228 227 221 220 217 214
320 322 324 321 319 317 317 316 314 316 317 316 317 321 322 321 321 320 319 317 315 311 306 300 289 276 276 278 273 273 261 246 243 239 234 235 229 220 218 212 218 228 231
320 320 319 317 317 316 316 314 314 314 315 316 317 320 321 320 322 322 321 318 315 312 309 307 297 284 285 290 286 287 285 272 260 249 236 227 228 219 213 212 220 229 233
317 316 316 314 316 316 317 315 314 316 315 317 316 317 318 317 319 319 318 317 315 315 315 308 305 296 289 285 291 304 294 286 279 266 246 232 228 213 208 208 214 222 230
322 321 320 319 319 319 318 314 315 316 315 315 313 313 313 312 313 314 315 316 316 314 316 311 308 305 300 302 302 308 296 298 294 283 260 240 234 224 218 215 212 219 225
321 322 321 320 320 322 320 315 314 315 316 314 312 311 312 312 312 314 316 319 321 321 322 323 321 319 316 316 313 315 309 297 295 290 273 247 232 237 233 231 224 214 209
324 325 323 322 323 324 322 317 314 316 317 315 312 312 314 316 315 317 319 320 320 322 328 331 332 335 336 340 338 334 323 317 294 289 289 271 229 241 237 230 204 185 187
323 324 322 321 324 327 324 317 317 319 317 315 315 315 317 318 318 318 318 319 320 322 326 330 331 334 338 342 348 342 336 329 317 303 317 332 35 39 152 144 149 162 174
323 324 324 324 325 327 326 321 321 320 316 314 317 318 320 323 326 324 321 320 320 321 324 327 328 330 332 335 336 335 338 341 334 333 350 2 49 60 45 42 70 90 141
322 323 322 322 323 326 326 326 326 323 319 317 317 318 321 322 327 329 327 322 318 318 317 318 318 322 324 328 333 330 328 326 319 330 330 347 29 55 54 66 67 68 90
320 322 322 322 323 326 327 329 329 325 322 321 322 322 323 323 325 328 331 337 335 337 337 338 335 331 335 338 341 345 346 348 350 354 10 21 25 19 50 74 73 65 66
Height
1539 1537 1535 1533 1531 1529 1528 1527 1525 1524 1523 1523 1522 1521 1521 1521 1521 1521 1521 1521 1521 1520 1520 1520 1520 1520 1521 1521 1522 1523 1524 1525 1526 1528 1528 1529 1530 1531 1532 1532 1533 1534 1535
1537 1535 1534 1532 1530 1528 1527 1526 1524 1523 1522 1521 1520 1519 1519 1518 1518 1518 1517 1517 1517 1517 1517 1516 1516 1517 1517 1518 1519 1520 1520 1521 1522 1524 1525 1526 1528 1526 1528 1529 1530 1531 1532
1538 1535 1533 1531 1529 1527 1525 1524 1523 1522 1521 1519 1518 1517 1516 1515 1515 1514 1514 1514 1513 1513 1513 1513 1513 1513 1513 1513 1514 1515 1516 1517 1518 1520 1522 1523 1523 1524 1525 1525 1526 1527 1529
1537 1535 1533 1530 1528 1526 1524 1522 1521 1520 1519 1517 1516 1515 1513 1512 1511 1511 1510 1510 1509 1509 1509 1509 1509 1509 1509 1510 1510 1511 1512 1513 1514 1516 1517 1518 1518 1520 1521 1522 1522 1524 1525
1537 1534 1532 1530 1528 1525 1523 1521 1520 1518 1516 1515 1513 1512 1511 1509 1509 1508 1507 1506 1506 1505 1505 1505 1505 1505 1505 1506 1506 1507 1508 1509 1510 1511 1512 1513 1514 1515 1517 1518 1519 1520 1521
1536 1534 1531 1529 1527 1524 1522 1520 1518 1516 1514 1512 1511 1509 1508 1506 1505 1504 1503 1502 1501 1501 1501 1500 1500 1500 1501 1501 1502 1502 1503 1504 1505 1506 1507 1508 1509 1510 1512 1513 1514 1515 1517
1535 1532 1530 1527 1525 1522 1520 1517 1515 1513 1511 1510 1508 1506 1505 1503 1502 1501 1499 1498 1497 1496 1496 1496 1496 1496 1496 1497 1497 1498 1498 1499 1500 1501 1502 1503 1504 1506 1508 1509 1510 1511 1512
1534 1531 1529 1526 1523 1521 1518 1516 1513 1511 1509 1507 1505 1504 1502 1500 1498 1497 1496 1494 1493 1492 1492 1491 1491 1491 1491 1492 1492 1493 1493 1494 1495 1496 1497 1498 1499 1501 1502 1504 1505 1507 1508
1532 1529 1527 1524 1522 1519 1517 1514 1511 1509 1506 1504 1502 1500 1498 1496 1495 1493 1492 1490 1489 1488 1487 1487 1486 1486 1486 1486 1487 1487 1488 1488 1489 1490 1491 1492 1494 1495 1497 1499 1500 1503 1504
1530 1528 1525 1522 1520 1517 1515 1512 1509 1507 1504 1502 1500 1497 1495 1493 1491 1489 1487 1486 1484 1484 1483 1482 1481 1481 1481 1481 1481 1482 1482 1483 1484 1485 1486 1487 1488 1490 1491 1493 1495 1497 1498
1528 1526 1523 1521 1518 1516 1513 1510 1507 1504 1501 1499 1496 1494 1491 1489 1487 1484 1482 1481 1479 1478 1477 1476 1475 1475 1475 1475 1476 1476 1477 1477 1478 1479 1480 1481 1483 1484 1486 1487 1489 1491 1493
1527 1524 1522 1519 1516 1513 1511 1508 1505 1501 1498 1495 1492 1490 1487 1485 1482 1480 1478 1476 1475 1473 1472 1471 1470 1469 1469 1470 1470 1470 1471 1471 1472 1473 1474 1476 1477 1479 1480 1482 1483 1485 1487
1525 1522 1519 1517 1514 1511 1508 1505 1502 1499 1495 1492 1489 1486 1484 1481 1478 1476 1473 1471 1470 1468 1467 1466 1465 1464 1464 1464 1464 1464 1465 1466 1466 1467 1468 1470 1471 1473 1474 1476 1477 1479 1481
1523 1520 1517 1514 1512 1509 1506 1502 1499 1496 1493 1489 1486 1483 1480 1477 1474 1472 1469 1467 1465 1463 1462 1460 1459 1459 1458 1458 1458 1459 1459 1460 1461 1462 1463 1464 1465 1466 1468 1470 1472 1474 1476
1520 1518 1515 1512 1509 1506 1503 1500 1496 1493 1490 1486 1483 1480 1477 1474 1471 1468 1465 1463 1461 1459 1457 1455 1454 1454 1453 1453 1453 1454 1454 1455 1455 1456 1457 1458 1459 1460 1462 1464 1466 1468 1470
1518 1515 1512 1509 1506 1503 1500 1496 1493 1490 1487 1483 1480 1477 1474 1471 1468 1465 1462 1459 1456 1454 1452 1451 1450 1449 1449 1448 1448 1449 1449 1449 1449 1450 1450 1452 1453 1454 1456 1458 1460 1463 1465
1516 1513 1509 1507 1503 1500 1497 1494 1490 1487 1484 1481 1478 1474 1471 1468 1465 1462 1459 1456 1453 1450 1448 1446 1445 1445 1444 1444 1444 1444 1444 1443 1443 1444 1445 1446 1447 1448 1450 1452 1454 1457 1459
1513 1510 1507 1504 1501 1497 1494 1491 1488 1484 1481 1478 1475 1472 1468 1465 1462 1459 1456 1453 1450 1447 1444 1443 1442 1441 1440 1440 1440 1440 1439 1439 1439 1439 1440 1440 1441 1443 1445 1447 1449 1450 1453
1512 1508 1505 1501 1497 1494 1491 1488 1485 1481 1479 1476 1472 1469 1466 1463 1459 1456 1453 1450 1447 1444 1442 1441 1439 1438 1437 1437 1437 1436 1435 1435 1435 1435 1436 1436 1437 1439 1440 1442 1443 1445 1447
1509 1505 1501 1498 1494 1491 1488 1485 1482 1479 1476 1473 1470 1467 1464 1461 1457 1454 1451 1448 1445 1443 1441 1439 1437 1436 1435 1434 1434 1433 1432 1431 1431 1431 1432 1432 1433 1434 1436 1437 1438 1439 1441
1506 1502 1498 1495 1492 1488 1485 1482 1479 1476 1473 1470 1467 1464 1461 1458 1455 1452 1449 1447 1444 1441 1439 1437 1435 1434 1433 1432 1431 1430 1430 1429 1429 1428 1428 1428 1429 1430 1431 1433 1434 1435 1437
1503 1500 1496 1493 1489 1486 1482 1479 1476 1474 1470 1467 1464 1461 1459 1456 1453 1450 1447 1445 1442 1440 1437 1435 1433 1432 1431 1430 1428 1428 1427 1427 1426 1425 1425 1425 1425 1426 1427 1429 1430 1431 1433
1501 1497 1493 1490 1487 1483 1480 1477 1473 1470 1467 1464 1461 1459 1456 1453 1451 1448 1446 1443 1441 1439 1437 1434 1432 1430 1429 1428 1427 1426 1425 1424 1423 1423 1423 1423 1422 1423 1423 1425 1426 1427 1429
1498 1495 1491 1487 1484 1481 1477 1474 1470 1467 1465 1462 1459 1456 1453 1451 1449 1447 1444 1442 1440 1438 1436 1434 1432 1430 1428 1427 1425 1424 1423 1422 1421 1421 1421 1421 1421 1421 1422 1422 1423 1424 1426
1495 1492 1489 1485 1481 1478 1475 1472 1468 1465 1463 1460 1457 1454 1452 1449 1447 1445 1443 1441 1439 1438 1436 1434 1432 1430 1427 1426 1425 1423 1422 1421 1421 1420 1420 1419 1419 1420 1420 1421 1422 1423 1424
1492 1489 1486 1482 1479 1475 1472 1469 1466 1463 1460 1457 1455 1453 1450 1448 1445 1443 1442 1440 1439 1437 1435 1433 1432 1429 1428 1425 1423 1422 1421 1420 1420 1419 1418 1418 1419 1419 1419 1420 1420 1421 1422